Regional Weather Roundup
Issued by NWS

Home | Current Version | Previous Version | Text Only | Print | Product List | Glossary On
Versions: 1 2 3 4 5 6 7 8 9 10 11 12 13 14 15 16 17 18 19 20 21 22 23 24 25 26 27 28 29 30 31 32 33 34 35 36 37 38 39 40 41 42 43 44 45 46 47 48 49 50
000
ASUS43 KMKX 260600
RWRWI

WISCONSIN REGIONAL WEATHER ROUNDUP
NATIONAL WEATHER SERVICE MILWAUKEE/SULLIVAN WI
100 AM CDT FRI AUG 26 2016

NOTE: "FAIR" INDICATES FEW OR NO CLOUDS BELOW 12,000 FEET WITH NO
SIGNIFICANT WEATHER AND/OR OBSTRUCTIONS TO VISIBILITY.

WIZ001-002-006>008-014>016-023>028-260700-
NORTHWEST WISCONSIN

CITY           SKY/WX    TMP DP  RH WIND       PRES   REMARKS
SUPERIOR ARPT  CLOUDY    60  55  82 W10       30.07R
ASHLAND        FAIR      56  53  90 SW7       30.06R
6HR MIN TEMP:  54; 6HR MAX TEMP:  67;

HAYWARD        FAIR      58  54  86 SW5       30.10R
6HR MIN TEMP:  57; 6HR MAX TEMP:  65;

SIREN          FAIR      58  55  87 W6        30.11R
CUMBERLAND     CLOUDY    55  52  88 W6        30.12R
RICE LAKE      FAIR      52  50  93 CALM      30.13R
CHETEK         NOT AVBL
LADYSMITH      MOCLDY    57  54  87 W3        30.12R
EAU CLAIRE     NOT AVBL
MENOMONIE      FAIR      59  55  87 CALM      30.12R
6HR MIN TEMP:  58; 6HR MAX TEMP:  71;

NEW RICHMOND   FAIR      56  54  94 W3        30.14R
OSCEOLA        FAIR      55  55 100 CALM      30.16R
$$

WIZ003>005-009-010-017-018-260700-
NORTH CENTRAL WISCONSIN

CITY           SKY/WX    TMP DP  RH WIND       PRES   REMARKS
MANITOWISH WTR NOT AVBL
ARBOR VITAE    FAIR      57  53  87 W5        30.08R
WOODRUFF       FAIR      57  53  87 W5        30.08R
RHINELANDER    FAIR      53  52  96 W6        30.09R
6HR MIN TEMP:  53; 6HR MAX TEMP:  69;

EAGLE RIVER    FAIR      54  52  94 CALM      30.07R
LAND O LAKES   FAIR      56  52  85 W3        30.07R
PHILLIPS       FAIR      55  53  94 CALM      30.09R
6HR MIN TEMP:  55; 6HR MAX TEMP:  66;

TOMAHAWK       FAIR      51  50  95 CALM      30.10R
MEDFORD        FAIR      55  55 100 W5        30.10S
MERRILL        FAIR      56  54  94 CALM      30.10R
$$

WIZ029-030-035-036-043>047-260700-
CENTRAL WISCONSIN

CITY           SKY/WX    TMP DP  RH WIND       PRES   REMARKS
WAUSAU         FAIR      59  55  87 NW7       30.08R
6HR MIN TEMP:  59; 6HR MAX TEMP:  72;

MOSINEE        FAIR      55  54  94 W6        30.11S
MARSHFIELD     FAIR      57  53  86 W5        30.10S
6HR MIN TEMP:  57; 6HR MAX TEMP:  71;

STEVENS POINT  FAIR      59  55  85 CALM      30.10S
WAUPACA        FAIR      65  57  73 W6        30.09R
WAUTOMA        FAIR      61  56  83 SW3       30.10R
6HR MIN TEMP:  60; 6HR MAX TEMP:  75;

WISC RAPIDS    FAIR      59  56  89 NW5       30.12R
6HR MIN TEMP:  59; 6HR MAX TEMP:  74;

CAMP DOUGLAS   NOT AVBL
$$

WIZ011>013-019>022-031-037>040-048>050-260700-
NORTHEAST WISCONSIN

CITY           SKY/WX    TMP DP  RH WIND       PRES   REMARKS
ANTIGO         FAIR      55  53  96 CALM      30.09R
SHAWANO        FAIR      63  56  79 W5        30.08R
OCONTO         NOT AVBL
STURGEON BAY   FAIR      66  58  75 W8        30.06R
6HR MIN TEMP:  66; 6HR MAX TEMP:  75;

GREEN BAY      FAIR      60  59  96 W8        30.07R
6HR MIN TEMP:  60; 6HR MAX TEMP:  75;

MANITOWOC      NOT AVBL
APPLETON       FAIR      61  54  77 NW10      30.06S
CLINTONVILLE   FAIR      61  54  77 W3        30.08R
OSHKOSH        FAIR      63  58  83 W3        30.08R
6HR MIN TEMP:  63; 6HR MAX TEMP:  75;

$$

WIZ032>034-041-042-053>061-260700-
SOUTHWEST WISCONSIN

CITY           SKY/WX    TMP DP  RH WIND       PRES   REMARKS
LA CROSSE      FAIR      64  60  87 CALM      30.12R
6HR MIN TEMP:  64; 6HR MAX TEMP:  77;

SPARTA         FAIR      55  55  98 CALM      30.12S
VIROQUA        FAIR      59  57  92 NW3       30.13S
6HR MIN TEMP:  59; 6HR MAX TEMP:  72;

BOSCOBEL       FOG       60  59  96 CALM      30.12S VSB 1/2
6HR MIN TEMP:  59; 6HR MAX TEMP:  76;

PRAIRIE DU CHI FAIR      62  60  91 CALM      30.12R
PLATTEVILLE    FAIR      63  63 100 W3        30.13R
$$

WIZ056-057-062-063-064-067-068-260700-
SOUTH CENTRAL WISCONSIN

CITY           SKY/WX    TMP DP  RH WIND       PRES   REMARKS
REEDSBURG      NOT AVBL
BARABOO/DELLS  FAIR      60  57  89 CALM      30.11R
LONE ROCK      NOT AVBL
MINERAL POINT  FAIR      63  63 100 NW3       30.12S
MADISON        FAIR      65  61  87 W5        30.10R
6HR MIN TEMP:  65; 6HR MAX TEMP:  74; 6HR PCP: TRACE;

MIDDLETON      FAIR      64  62  93 CALM      30.12R
WATERTOWN      FAIR      64  64 100 CALM      30.09S
MONROE         FAIR      64  61  88 W8        30.12R
JANESVILLE     FAIR      64  64 100 CALM      30.10S
$$

WIZ051-052-058>065-066-070>072-260700-
SOUTHEAST WISCONSIN

CITY           SKY/WX    TMP DP  RH WIND       PRES   REMARKS
MILWAUKEE      FAIR      72  61  68 W7        30.09R
6HR MIN TEMP:  72; 6HR MAX TEMP:  80;

WAUKESHA       FAIR      64  59  82 W6        30.11R
MILWAUKEE/TIMM FAIR      66  59  77 W6        30.09R
RACINE         FAIR      66  61  84 CALM      30.11R
6HR MIN TEMP:  65; 6HR MAX TEMP:  76;

BURLINGTON     FAIR      61  60  95 CALM      30.10S
KENOSHA        FAIR      62  60  93 W5        30.10R
6HR MIN TEMP:  62; 6HR MAX TEMP:  73;

FOND DU LAC    FAIR      63  59  87 CALM      30.09R
6HR MIN TEMP:  62; 6HR MAX TEMP:  74;

SHEBOYGAN      FAIR      65  60  84 W5        30.07R
6HR MIN TEMP:  65; 6HR MAX TEMP:  74;

WEST BEND      FAIR      64  61  88 W7        30.08S
JUNEAU         FAIR      61  60  95 CALM      30.11R
$$

LSZ147-162-260700-
LAKE SUPERIOR

STATION/POSITION TIME  TEMP    WIND        PRES    WAVE
                       AIR SEA DIR/SP/G            HT/PER
                 (UTC) (F)     (DEG/KT/KT) (MB)    (FT/S)
W MID LAKE BUOY  0450   66 67  280/ 17/ 21 1014.4R   4/ 5
DEVILS ISLAND    0500   64     270/ 16/ 17 1016.5R
PORT WING        0500   64     260/ 12/ 16 1017.3R
SAXON HARBOR     0500   60     180/  6/  9 1016.9R
$$

LMZ867-665-643>646-260700-
LAKE MICHIGAN

STATION/POSITION TIME  TEMP    WIND        PRES    WAVE
                       AIR SEA DIR/SP/G            HT/PER
                 (UTC) (F)     (DEG/KT/KT) (MB)    (FT/S)
CHAMBERS ISLAND  0500   67     240/  4/  7 1016.6R
N MID LAKE BUOY  0450   70 71  290/ 16/ 19 1014.8R   2/ 4
NORTHPORT PIER   0500   70     290/  8/ 11 1016.3
SISTER BAY       0522   69     310/ 18/ 21   N/A
KEWAUNEE LAKESHO 0500   66     300/  4/  6 1016.7R
SHEBOYGAN LAKESH 0500   68     250/  5/  6 1017.1R
PORT WASHINGTON  0500   68     250/  3/  5 1018.6
ATWATER BUOY     0500   68 58  260/  4/  6   N/A
MILWAUKEE LAKESH 0510   72     280/  7/  8   N/A
S MID LAKE BUOY  0450   75 75  290/ 12/ 12 1017.3R   1
KENOSHA   LAKESH 0500   71     280/  7/  9 1018.3R
$$

TC  - TEMPERATURE IN CELSIUS
VSB - VISIBILITY IN STATUTE MILES
WCI - WIND CHILL INDEX
HX  - HEAT INDEX




USA.gov is the U.S. government's official web portal to all federal, state and local government web resources and services.